Time,TemperatureF,DewpointF,PressureIn,WindDirection,WindDirectionDegrees,WindSpeedMPH,WindSpeedGustMPH,Humidity,HourlyPrecipIn,Conditions,Clouds,dailyrainin,SoftwareType,DateUTC
2013-01-27 09:36:00,23.5,13.8,18.06,NW,309,4.0,13.0,66,0.00,,,0.00,VWS V13.01,2013-01-27 14:36:00,
2013-01-27 09:41:00,23.8,14.1,18.06,NNW,327,5.0,13.0,66,0.00,,,0.00,VWS V13.01,2013-01-27 14:41:00,
2013-01-27 09:46:00,24.2,14.5,18.06,WNW,284,4.0,13.0,66,0.00,,,0.00,VWS V13.01,2013-01-27 14:46:00,
2013-01-27 09:47:00,24.3,14.6,18.06,WNW,302,1.0,13.0,66,0.00,,,0.00,VWS V13.01,2013-01-27 14:47:00,
2013-01-27 09:51:00,24.6,14.9,18.06,NW,313,1.0,13.0,66,0.00,,,0.00,VWS V13.01,2013-01-27 14:51:00,
2013-01-27 09:52:00,24.7,15.0,18.06,WSW,238,0.0,13.0,66,0.00,,,0.00,VWS V13.01,2013-01-27 14:52:00,
2013-01-27 09:56:00,25.0,14.9,18.06,NW,325,3.0,13.0,65,0.00,,,0.00,VWS V13.01,2013-01-27 14:56:00,
2013-01-27 09:57:00,25.1,15.0,18.06,West,279,2.0,13.0,65,0.00,,,0.00,VWS V13.01,2013-01-27 14:57:00,
2013-01-27 09:58:00,25.1,14.6,18.06,West,279,1.0,13.0,64,0.00,,,0.00,VWS V13.01,2013-01-27 14:58:00,
2013-01-27 10:00:00,25.4,14.9,18.06,NW,323,4.0,13.0,64,0.00,,,0.00,VWS V13.01,2013-01-27 15:00:00,
2013-01-27 10:01:00,25.3,14.8,18.06,NW,313,6.0,13.0,64,0.00,,,0.00,VWS V13.01,2013-01-27 15:01:00,
2013-01-27 10:02:00,25.4,14.9,18.06,North,9,3.0,13.0,64,0.00,,,0.00,VWS V13.01,2013-01-27 15:02:00,
2013-01-27 10:03:00,25.4,14.9,18.06,NW,323,4.0,13.0,64,0.00,,,0.00,VWS V13.01,2013-01-27 15:03:00,
2013-01-27 10:06:00,25.6,15.1,18.06,WNW,290,2.0,5.0,64,0.00,,,0.00,VWS V13.01,2013-01-27 15:06:00,
2013-01-27 10:07:00,25.6,15.1,18.06,West,263,2.0,5.0,64,0.00,,,0.00,VWS V13.01,2013-01-27 15:07:00,
2013-01-27 10:08:00,25.7,15.2,18.06,NW,304,4.0,7.0,64,0.00,,,0.00,VWS V13.01,2013-01-27 15:08:00,
2013-01-27 10:11:00,26.0,15.1,18.06,WNW,302,4.0,7.0,63,0.00,,,0.00,VWS V13.01,2013-01-27 15:11:00,
2013-01-27 10:12:00,26.0,15.1,18.06,NNW,344,7.0,7.0,63,0.00,,,0.00,VWS V13.01,2013-01-27 15:12:00,
2013-01-27 10:13:00,26.1,15.2,18.06,WNW,292,0.0,8.0,63,0.00,,,0.00,VWS V13.01,2013-01-27 15:13:00,
2013-01-27 10:17:00,26.2,15.0,18.06,NW,325,2.0,11.0,62,0.00,,,0.00,VWS V13.01,2013-01-27 15:17:00,
2013-01-27 10:18:00,26.2,15.3,22.65,NNW,334,1.0,11.0,63,0.00,,,0.00,VWS V13.01,2013-01-27 15:18:00,
2013-01-27 10:22:00,26.6,15.4,22.65,North,355,1.0,11.0,62,0.00,,,0.00,VWS V13.01,2013-01-27 15:22:00,
2013-01-27 10:23:00,26.7,15.4,22.65,North,350,1.0,11.0,62,0.00,,,0.00,VWS V13.01,2013-01-27 15:23:00,
2013-01-27 10:27:00,27.1,15.4,22.29,WNW,282,3.0,11.0,61,0.00,,,0.00,VWS V13.01,2013-01-27 15:27:00,
2013-01-27 10:28:00,27.2,15.6,22.29,NW,321,1.0,11.0,61,0.00,,,0.00,VWS V13.01,2013-01-27 15:28:00,
2013-01-27 10:32:00,27.5,15.1,22.29,NNW,340,3.0,13.0,59,0.00,,,0.00,VWS V13.01,2013-01-27 15:32:00,
2013-01-27 10:33:00,27.5,15.1,22.29,NW,315,8.0,13.0,59,0.00,,,0.00,VWS V13.01,2013-01-27 15:33:00,
2013-01-27 11:00:00,27.3,12.9,22.29,NW,315,4.0,16.0,54,0.00,,,0.00,VWS V13.01,2013-01-27 16:00:00,
2013-01-27 12:00:00,29.7,13.4,23.38,NW,315,5.0,13.0,50,0.00,,,0.00,VWS V13.01,2013-01-27 17:00:00,
2013-01-27 13:00:00,32.1,13.2,24.69,NW,315,4.0,15.0,45,0.00,,,0.00,VWS V13.01,2013-01-27 18:00:00,
2013-01-27 14:00:00,34.1,15.5,21.51,NNW,338,4.0,13.0,46,0.00,,,0.00,VWS V13.01,2013-01-27 19:00:00,
2013-01-27 15:00:00,35.7,15.9,22.25,NW,315,2.0,9.0,44,0.00,,,0.00,VWS V13.01,2013-01-27 20:00:00,
2013-01-27 16:00:00,37.1,16.1,22.24,WSW,248,2.0,9.0,42,0.00,,,0.00,VWS V13.01,2013-01-27 21:00:00,
2013-01-27 17:00:00,35.6,16.9,21.52,WNW,292,1.0,9.0,46,0.00,,,0.00,VWS V13.01,2013-01-27 22:00:00,
2013-01-27 18:00:00,33.4,14.9,20.06,West,270,0.0,7.0,46,0.00,,,0.00,VWS V13.01,2013-01-27 23:00:00,
2013-01-27 19:00:00,31.5,14.1,18.59,West,270,0.0,0.0,48,0.00,,,0.00,VWS V13.01,2013-01-28 00:00:00,
2013-01-27 20:00:00,30.0,15.0,20.79,West,270,0.0,0.0,53,0.00,,,0.00,VWS V13.01,2013-01-28 01:00:00,
2013-01-27 21:00:00,28.2,16.1,22.25,West,270,0.0,0.0,60,0.00,,,0.00,VWS V13.01,2013-01-28 02:00:00,
2013-01-27 22:00:00,26.7,16.5,22.26,West,270,0.0,0.0,65,0.00,,,0.00,VWS V13.01,2013-01-28 03:00:00,
2013-01-27 23:00:00,25.5,16.4,22.24,West,270,0.0,1.0,68,0.00,,,0.00,VWS V13.01,2013-01-28 04:00:00,